"read_dt","SO2 (ppb)","flags","PMT voltage (V)","lamp voltage (V)","lamp intensity (Hz)","internal temp (C)","react chamber temp (C)","sample flow (l/min)","pres (mmHg)","SO2 bkg (ppb)","SO2 coefficient"
2014-02-14 00:00:00,5325E-2,5C000090,-0724,1375,6535,023.9,045.2,0.366,770.4,01.15,0.508
2014-02-14 00:01:00,5376E-2,5C000090,-0724,1375,6571,023.9,045.2,0.393,770.6,01.15,0.508
2014-02-14 00:02:00,5293E-2,5C000090,-0724,1375,6400,023.9,045.2,0.402,770.6,01.15,0.508
2014-02-14 00:03:00,5317E-2,5C000090,-0724,1375,6468,023.9,045.2,0.409,770.7,01.15,0.508
2014-02-14 00:04:00,5325E-2,5C000090,-0724,1375,6569,023.9,045.2,0.412,770.7,01.15,0.508
2014-02-14 00:05:00,5329E-2,5C000090,-0724,1375,6508,023.9,045.2,0.423,770.7,01.15,0.508
2014-02-14 00:06:00,5297E-2,5C000090,-0724,1375,6461,023.9,045.1,0.358,770.5,01.15,0.508
2014-02-14 00:07:00,5275E-2,5C000090,-0724,1375,6579,023.9,045.2,0.373,770.5,01.15,0.508
2014-02-14 00:08:00,5312E-2,5C000090,-0724,1375,6522,023.9,045.2,0.386,770.5,01.15,0.508
2014-02-14 00:09:00,5316E-2,5C000090,-0724,1375,6498,023.9,045.2,0.403,770.6,01.15,0.508
2014-02-14 00:10:00,5318E-2,5C000090,-0724,1375,6461,023.9,045.2,0.417,770.7,01.15,0.508
2014-02-14 00:11:00,5272E-2,5C000090,-0724,1375,6406,023.9,045.1,0.419,770.7,01.15,0.508
2014-02-14 00:12:00,5318E-2,5C000090,-0724,1375,6486,023.9,045.2,0.416,770.7,01.15,0.508
2014-02-14 00:13:00,5291E-2,5C000090,-0724,1375,6522,023.9,045.1,0.430,770.8,01.15,0.508
2014-02-14 00:14:00,5385E-2,5C000090,-0724,1375,6443,023.9,045.2,0.524,770.8,01.15,0.508
2014-02-14 00:15:00,5332E-2,5C000090,-0724,1375,6455,023.9,045.2,0.497,770.8,01.15,0.508
2014-02-14 00:16:00,5293E-2,5C000090,-0724,1375,6511,023.9,045.2,0.484,770.6,01.15,0.508
2014-02-14 00:17:00,5289E-2,5C000090,-0724,1375,6424,023.9,045.2,0.490,770.6,01.15,0.508
2014-02-14 00:18:00,5303E-2,5C000090,-0724,1375,6373,023.9,045.2,0.502,770.7,01.15,0.508
2014-02-14 00:19:00,5243E-2,5C000090,-0724,1375,6480,023.8,045.2,0.509,770.7,01.15,0.508
2014-02-14 00:20:00,5318E-2,5C000090,-0724,1375,6403,023.8,045.2,0.511,770.7,01.15,0.508
2014-02-14 00:21:00,5296E-2,5C000090,-0724,1375,6482,023.8,045.2,0.516,770.8,01.15,0.508
2014-02-14 00:22:00,5321E-2,5C000090,-0724,1375,6268,023.9,045.2,0.517,770.8,01.15,0.508
2014-02-14 00:23:00,5265E-2,5C000090,-0724,1375,6459,023.9,045.2,0.509,770.8,01.15,0.508
2014-02-14 00:24:00,5277E-2,5C000090,-0724,1375,6402,023.8,045.2,0.482,770.6,01.15,0.508
2014-02-14 00:25:00,5278E-2,5C000090,-0724,1375,6303,023.8,045.1,0.493,770.6,01.15,0.508
2014-02-14 00:26:00,5282E-2,5C000090,-0724,1375,6382,023.8,045.2,0.495,770.6,01.15,0.508
2014-02-14 00:27:00,5305E-2,5C000090,-0724,1375,6402,023.8,045.2,0.498,770.7,01.15,0.508
2014-02-14 00:28:00,5285E-2,5C000090,-0724,1375,6365,023.8,045.1,0.513,770.8,01.15,0.508
2014-02-14 00:29:00,5296E-2,5C000090,-0724,1375,6338,023.8,045.1,0.458,770.4,01.15,0.508
2014-02-14 00:30:00,5271E-2,5C000090,-0724,1375,6351,023.8,045.1,0.480,770.6,01.15,0.508
2014-02-14 00:31:00,5235E-2,5C000090,-0724,1375,6258,023.8,045.2,0.490,770.7,01.15,0.508
2014-02-14 00:32:00,5271E-2,5C000090,-0724,1375,6250,023.8,045.2,0.503,770.7,01.15,0.508
2014-02-14 00:33:00,5262E-2,5C000090,-0724,1375,6349,023.8,045.2,0.510,770.8,01.15,0.508
2014-02-14 00:34:00,5239E-2,5C000090,-0724,1375,6251,023.8,045.2,0.510,770.8,01.15,0.508
2014-02-14 00:35:00,5242E-2,5C000090,-0724,1375,6293,023.8,045.2,0.505,770.7,01.15,0.508
2014-02-14 00:36:00,5252E-2,5C000090,-0724,1375,6263,023.8,045.1,0.517,770.8,01.15,0.508
2014-02-14 00:37:00,5250E-2,5C000090,-0724,1375,6290,023.8,045.2,0.486,770.6,01.15,0.508
2014-02-14 00:38:00,5248E-2,5C000090,-0724,1375,6306,023.8,045.2,0.500,770.7,01.15,0.508
2014-02-14 00:39:00,5285E-2,5C000090,-0724,1375,6358,023.8,045.2,0.506,770.7,01.15,0.508
2014-02-14 00:40:00,5308E-2,5C000090,-0724,1375,6361,023.8,045.2,0.515,770.8,01.15,0.508
2014-02-14 00:41:00,5246E-2,5C000090,-0724,1375,6269,023.8,045.2,0.527,770.8,01.15,0.508
2014-02-14 00:42:00,5270E-2,5C000090,-0724,1375,6309,023.8,045.2,0.527,770.8,01.15,0.508
2014-02-14 00:43:00,5236E-2,5C000090,-0724,1375,6294,023.8,045.2,0.519,770.8,01.15,0.508
2014-02-14 00:44:00,5249E-2,5C000090,-0724,1375,6305,023.8,045.1,0.464,770.4,01.15,0.508
2014-02-14 00:45:00,5293E-2,5C000090,-0724,1375,6300,023.8,045.2,0.492,770.6,01.15,0.508
2014-02-14 00:46:00,5170E-2,5C000090,-0724,1375,6244,023.8,045.2,0.501,770.6,01.15,0.508
2014-02-14 00:47:00,5254E-2,5C000090,-0724,1375,6217,023.7,045.1,0.511,770.7,01.15,0.508
2014-02-14 00:48:00,5277E-2,5C000090,-0724,1375,6286,023.8,045.1,0.515,770.7,01.15,0.508
2014-02-14 00:49:00,5273E-2,5C000090,-0724,1375,6261,023.8,045.1,0.512,770.7,01.15,0.508
2014-02-14 00:50:00,5223E-2,5C000090,-0724,1375,6243,023.8,045.1,0.516,770.7,01.15,0.508
2014-02-14 00:51:00,5225E-2,5C000090,-0724,1375,6321,023.8,045.2,0.527,770.8,01.15,0.508
2014-02-14 00:52:00,5215E-2,5C000090,-0724,1375,6237,023.7,045.1,0.471,770.4,01.15,0.508
2014-02-14 00:53:00,5202E-2,5C000090,-0724,1375,6251,023.7,045.2,0.489,770.5,01.15,0.508
2014-02-14 00:54:00,5258E-2,5C000090,-0724,1375,6272,023.7,045.2,0.497,770.6,01.15,0.508
2014-02-14 00:55:00,5274E-2,5C000090,-0724,1375,6348,023.7,045.2,0.499,770.6,01.15,0.508
2014-02-14 00:56:00,5178E-2,5C000090,-0724,1375,6304,023.7,045.2,0.519,770.7,01.15,0.508
2014-02-14 00:57:00,5215E-2,5C000090,-0724,1375,6209,023.7,045.1,0.516,770.7,01.15,0.508
2014-02-14 00:58:00,5241E-2,5C000090,-0724,1375,6241,023.7,045.2,0.520,770.7,01.15,0.508
2014-02-14 00:59:00,5214E-2,5C000090,-0724,1375,6348,023.7,045.2,0.459,770.4,01.15,0.508
2014-02-14 01:00:00,5246E-2,5C000090,-0724,1375,6268,023.7,045.2,0.480,770.4,01.15,0.508
2014-02-14 01:01:00,5231E-2,5C000090,-0724,1375,6534,023.7,045.2,0.488,770.5,01.15,0.508
2014-02-14 01:02:00,5319E-2,5C000090,-0724,1375,6484,023.7,045.1,0.495,770.5,01.15,0.508
2014-02-14 01:03:00,5275E-2,5C000090,-0724,1375,6386,023.7,045.2,0.512,770.6,01.15,0.508
2014-02-14 01:04:00,5279E-2,5C000090,-0724,1375,6427,023.7,045.1,0.512,770.6,01.15,0.508
2014-02-14 01:05:00,5269E-2,5C000090,-0724,1375,6422,023.7,045.2,0.511,770.7,01.15,0.508
2014-02-14 01:06:00,5245E-2,5C000090,-0724,1375,6430,023.7,045.2,0.513,770.6,01.15,0.508
2014-02-14 01:07:00,5289E-2,5C000090,-0724,1375,6459,023.7,045.2,0.456,770.3,01.15,0.508
2014-02-14 01:08:00,5319E-2,5C000090,-0724,1375,6382,023.7,045.1,0.473,770.4,01.15,0.508
2014-02-14 01:09:00,5276E-2,5C000090,-0724,1375,6336,023.7,045.1,0.480,770.4,01.15,0.508
2014-02-14 01:10:00,5270E-2,5C000090,-0724,1375,6342,023.7,045.1,0.497,770.5,01.15,0.508
2014-02-14 01:11:00,5296E-2,5C000090,-0724,1375,6473,023.7,045.2,0.510,770.6,01.15,0.508
2014-02-14 01:12:00,5257E-2,5C000090,-0724,1375,6326,023.7,045.2,0.506,770.6,01.15,0.508
2014-02-14 01:13:00,5324E-2,5C000090,-0724,1375,6347,023.7,045.2,0.505,770.6,01.15,0.508
2014-02-14 01:14:00,5336E-2,5C000090,-0724,1375,6294,023.7,045.2,0.511,770.6,01.15,0.508
2014-02-14 01:15:00,5289E-2,5C000090,-0724,1375,6260,023.7,045.2,0.454,770.3,01.15,0.508
2014-02-14 01:16:00,5252E-2,5C000090,-0724,1375,6352,023.7,045.2,0.457,770.3,01.15,0.508
2014-02-14 01:17:00,5245E-2,5C000090,-0724,1375,6338,023.7,045.2,0.460,770.3,01.15,0.508
2014-02-14 01:18:00,5286E-2,5C000090,-0724,1375,6278,023.7,045.2,0.485,770.4,01.15,0.508
2014-02-14 01:19:00,5238E-2,5C000090,-0724,1375,6292,023.7,045.2,0.494,770.5,01.15,0.508
2014-02-14 01:20:00,5254E-2,5C000090,-0724,1375,6320,023.7,045.2,0.498,770.5,01.15,0.508
2014-02-14 01:21:00,5254E-2,5C000090,-0724,1375,6375,023.7,045.2,0.508,770.6,01.15,0.508
2014-02-14 01:22:00,5274E-2,5C000090,-0724,1375,6290,023.7,045.2,0.513,770.6,01.15,0.508
2014-02-14 01:23:00,5258E-2,5C000090,-0724,1375,6255,023.7,045.2,0.512,770.6,01.15,0.508
2014-02-14 01:24:00,5331E-2,5C000090,-0724,1375,6498,023.7,045.2,0.526,770.7,01.15,0.508
2014-02-14 01:25:00,5389E-2,5C000090,-0724,1375,6398,023.7,045.2,0.474,770.4,01.15,0.508
2014-02-14 01:26:00,5380E-2,5C000090,-0724,1375,6421,023.7,045.2,0.491,770.5,01.15,0.508
2014-02-14 01:27:00,5352E-2,5C000090,-0724,1375,6376,023.7,045.1,0.498,770.6,01.15,0.508
2014-02-14 01:28:00,5348E-2,5C000090,-0724,1375,6414,023.7,045.2,0.503,770.6,01.15,0.508
2014-02-14 01:29:00,5353E-2,5C000090,-0724,1375,6255,023.7,045.2,0.509,770.6,01.15,0.508
2014-02-14 01:30:00,5363E-2,5C000090,-0724,1375,6331,023.7,045.1,0.508,770.6,01.15,0.508
2014-02-14 01:31:00,5431E-2,5C000090,-0724,1375,6319,023.7,045.1,0.516,770.7,01.15,0.508
2014-02-14 01:32:00,5346E-2,5C000090,-0724,1375,6273,023.7,045.2,0.456,770.3,01.15,0.508
2014-02-14 01:33:00,5372E-2,5C000090,-0724,1375,6246,023.7,045.2,0.488,770.5,01.15,0.508
2014-02-14 01:34:00,5326E-2,5C000090,-0724,1375,6341,023.7,045.2,0.498,770.5,01.15,0.508
2014-02-14 01:35:00,5303E-2,5C000090,-0724,1375,6359,023.7,045.2,0.501,770.6,01.15,0.508
2014-02-14 01:36:00,5316E-2,5C000090,-0724,1375,6435,023.7,045.1,0.506,770.6,01.15,0.508
2014-02-14 01:37:00,5331E-2,5C000090,-0724,1375,6370,023.7,045.2,0.515,770.7,01.15,0.508
2014-02-14 01:38:00,5281E-2,5C000090,-0724,1375,6364,023.7,045.2,0.517,770.7,01.15,0.508
2014-02-14 01:39:00,5329E-2,5C000090,-0724,1375,6326,023.7,045.2,0.515,770.7,01.15,0.508
2014-02-14 01:40:00,5352E-2,5C000090,-0724,1375,6356,023.7,045.2,0.451,770.3,01.15,0.508
2014-02-14 01:41:00,5324E-2,5C000090,-0724,1375,6389,023.7,045.2,0.467,770.4,01.15,0.508
2014-02-14 01:42:00,5346E-2,5C000090,-0724,1375,6373,023.7,045.1,0.473,770.5,01.15,0.508
2014-02-14 01:43:00,5356E-2,5C000090,-0724,1375,6344,023.7,045.1,0.480,770.5,01.15,0.508
2014-02-14 01:44:00,5385E-2,5C000090,-0724,1375,6308,023.7,045.2,0.490,770.6,01.15,0.508
2014-02-14 01:45:00,5371E-2,5C000090,-0724,1375,6337,023.7,045.2,0.484,770.6,01.15,0.508
2014-02-14 01:46:00,5362E-2,5C000090,-0724,1375,6262,023.7,045.2,0.491,770.6,01.15,0.508
2014-02-14 01:47:00,5304E-2,5C000090,-0724,1375,6249,023.7,045.1,0.420,770.3,01.15,0.508
2014-02-14 01:48:00,5384E-2,5C000090,-0724,1375,6237,023.7,045.2,0.450,770.4,01.15,0.508
2014-02-14 01:49:00,5304E-2,5C000090,-0724,1375,6262,023.7,045.1,0.450,770.4,01.15,0.508
2014-02-14 01:50:00,5345E-2,5C000090,-0724,1375,6294,023.7,045.1,0.464,770.5,01.15,0.508
2014-02-14 01:51:00,5365E-2,5C000090,-0724,1375,6215,023.7,045.2,0.467,770.5,01.15,0.508
2014-02-14 01:52:00,5322E-2,5C000090,-0724,1375,6189,023.7,045.2,0.458,770.5,01.15,0.508
2014-02-14 01:53:00,5293E-2,5C000090,-0724,1375,6345,023.7,045.2,0.459,770.5,01.15,0.508
2014-02-14 01:54:00,5304E-2,5C000090,-0724,1375,6286,023.7,045.1,0.421,770.5,01.15,0.508
2014-02-14 01:55:00,5258E-2,5C000090,-0724,1375,6148,023.7,045.1,0.393,770.2,01.15,0.508
2014-02-14 01:56:00,5278E-2,5C000090,-0724,1375,6238,023.7,045.2,0.395,770.2,01.15,0.508
2014-02-14 01:57:00,5275E-2,5C000090,-0724,1375,6163,023.7,045.2,0.421,770.3,01.15,0.508
2014-02-14 01:58:00,5271E-2,5C000090,-0724,1375,6160,023.7,045.2,0.430,770.4,01.15,0.508
2014-02-14 01:59:00,5324E-2,5C000090,-0724,1375,6141,023.7,045.2,0.437,770.4,01.15,0.508
2014-02-14 02:00:00,5250E-2,5C000090,-0724,1375,6159,023.7,045.2,0.458,770.5,01.15,0.508
2014-02-14 02:01:00,5302E-2,5C000090,-0724,1375,6218,023.7,045.2,0.447,770.5,01.15,0.508
2014-02-14 02:02:00,5267E-2,5C000090,-0724,1375,6151,023.7,045.2,0.448,770.5,01.15,0.508
2014-02-14 02:03:00,5255E-2,5C000090,-0724,1375,6142,023.7,045.2,0.457,770.6,01.15,0.508
2014-02-14 02:04:00,5292E-2,5C000090,-0724,1375,6179,023.7,045.2,0.452,770.5,01.15,0.508
2014-02-14 02:05:00,5272E-2,5C000090,-0724,1375,6154,023.7,045.1,0.433,770.6,01.15,0.508
2014-02-14 02:06:00,5247E-2,5C000090,-0724,1375,6173,023.7,045.2,0.401,770.3,01.15,0.508
2014-02-14 02:07:00,5276E-2,5C000090,-0724,1375,6168,023.7,045.2,0.414,770.4,01.15,0.508
2014-02-14 02:08:00,5262E-2,5C000090,-0724,1375,6128,023.7,045.2,0.418,770.4,01.15,0.508
2014-02-14 02:09:00,5259E-2,5C000090,-0724,1375,6051,023.7,045.2,0.432,770.5,01.15,0.508
2014-02-14 02:10:00,5279E-2,5C000090,-0724,1375,6099,023.6,045.2,0.449,770.6,01.15,0.508
2014-02-14 02:11:00,5288E-2,5C000090,-0724,1375,6163,023.7,045.2,0.451,770.6,01.15,0.508
2014-02-14 02:12:00,5285E-2,5C000090,-0724,1375,6125,023.7,045.2,0.436,770.6,01.15,0.508
2014-02-14 02:13:00,5219E-2,5C000090,-0724,1375,6158,023.7,045.1,0.448,770.6,01.15,0.508
2014-02-14 02:14:00,5264E-2,5C000090,-0724,1375,6104,023.7,045.2,0.369,770.3,01.15,0.508
2014-02-14 02:15:00,5248E-2,5C000090,-0724,1375,6156,023.7,045.2,0.394,770.4,01.15,0.508
2014-02-14 02:16:00,5232E-2,5C000090,-0724,1375,6168,023.7,045.2,0.404,770.4,01.15,0.508
2014-02-14 02:17:00,5251E-2,5C000090,-0724,1375,6199,023.7,045.2,0.412,770.5,01.15,0.508
2014-02-14 02:18:00,5234E-2,5C000090,-0724,1375,6149,023.7,045.2,0.419,770.5,01.15,0.508
2014-02-14 02:19:00,5263E-2,5C000090,-0724,1375,6099,023.7,045.2,0.427,770.6,01.15,0.508
2014-02-14 02:20:00,5276E-2,5C000090,-0724,1375,6017,023.7,045.2,0.429,770.6,01.15,0.508
2014-02-14 02:21:00,5222E-2,5C000090,-0724,1375,6096,023.7,045.1,0.425,770.6,01.15,0.508
2014-02-14 02:22:00,5208E-2,5C000090,-0724,1375,5980,023.7,045.1,0.422,770.6,01.15,0.508
2014-02-14 02:23:00,5242E-2,5C000090,-0724,1375,6031,023.7,045.1,0.339,770.2,01.15,0.508
2014-02-14 02:24:00,5194E-2,5C000090,-0724,1375,5966,023.7,045.2,0.366,770.4,01.15,0.508
2014-02-14 02:25:00,5237E-2,5C000090,-0724,1375,6027,023.7,045.2,0.370,770.4,01.15,0.508
2014-02-14 02:26:00,5243E-2,5C000090,-0724,1375,6054,023.7,045.2,0.383,770.4,01.15,0.508
2014-02-14 02:27:00,5191E-2,5C000090,-0724,1375,6150,023.7,045.1,0.390,770.4,01.15,0.508
2014-02-14 02:28:00,5314E-2,5C000090,-0724,1375,6161,023.7,045.1,0.390,770.5,01.15,0.508
2014-02-14 02:29:00,5275E-2,5C000090,-0724,1375,6276,023.7,045.2,0.381,770.4,01.15,0.508
2014-02-14 02:30:00,5317E-2,5C000090,-0724,1375,6209,023.7,045.2,0.389,770.5,01.15,0.508
2014-02-14 02:31:00,5273E-2,5C000090,-0724,1375,6152,023.7,045.2,0.382,770.5,01.15,0.508
2014-02-14 02:32:00,5218E-2,5C000090,-0724,1375,6186,023.7,045.2,0.311,770.2,01.15,0.508
2014-02-14 02:33:00,5235E-2,5C000090,-0724,1375,6140,023.7,045.2,0.340,770.3,01.15,0.508
2014-02-14 02:34:00,5222E-2,5C000090,-0724,1375,6152,023.7,045.2,0.354,770.4,01.15,0.508
2014-02-14 02:35:00,5248E-2,5C000090,-0724,1375,6129,023.7,045.2,0.364,770.4,01.15,0.508
2014-02-14 02:36:00,5184E-2,5C000090,-0724,1375,6112,023.7,045.2,0.376,770.5,01.15,0.508
2014-02-14 02:37:00,5212E-2,5C000090,-0724,1375,6165,023.7,045.1,0.368,770.5,01.15,0.508
2014-02-14 02:38:00,5202E-2,5C000090,-0724,1375,6130,023.7,045.2,0.377,770.5,01.15,0.508
2014-02-14 02:39:00,5215E-2,5C000090,-0724,1375,6166,023.7,045.1,0.285,770.2,01.15,0.508
2014-02-14 02:40:00,5227E-2,5C000090,-0724,1375,6167,023.7,045.2,0.305,770.3,01.15,0.508
2014-02-14 02:41:00,5199E-2,5C000090,-0724,1375,6127,023.7,045.2,0.312,770.3,01.15,0.508
2014-02-14 02:42:00,5218E-2,5C000090,-0724,1375,6130,023.7,045.2,0.310,770.3,01.15,0.508
2014-02-14 02:43:00,5260E-2,5C000090,-0724,1375,6094,023.7,045.2,0.332,770.4,01.15,0.508
2014-02-14 02:44:00,5216E-2,5C000090,-0724,1375,6119,023.7,045.2,0.341,770.4,01.15,0.508
2014-02-14 02:45:00,5184E-2,5C000090,-0724,1375,6097,023.7,045.2,0.345,770.5,01.15,0.508
2014-02-14 02:46:00,5133E-2,5C000090,-0724,1375,6065,023.7,045.1,0.343,770.5,01.15,0.508
2014-02-14 02:47:00,5197E-2,5C000090,-0724,1375,6107,023.7,045.1,0.338,770.4,01.15,0.508
2014-02-14 02:48:00,5111E-2,5C000490,-0724,1375,6072,023.7,045.1,0.228,770.1,01.15,0.508
2014-02-14 02:49:00,5181E-2,5C000490,-0724,1375,6079,023.7,045.2,0.260,770.2,01.15,0.508
2014-02-14 02:50:00,5148E-2,5C000090,-0724,1375,6044,023.7,045.2,0.275,770.3,01.15,0.508
2014-02-14 02:51:00,5181E-2,5C000090,-0724,1375,6003,023.7,045.2,0.291,770.4,01.15,0.508
2014-02-14 02:52:00,5144E-2,5C000090,-0724,1375,6021,023.7,045.2,0.300,770.4,01.15,0.508
2014-02-14 02:53:00,5149E-2,5C000090,-0724,1375,5957,023.7,045.2,0.294,770.4,01.15,0.508
2014-02-14 02:54:00,5263E-2,5C000090,-0724,1375,6107,023.7,045.2,0.287,770.4,01.15,0.508
2014-02-14 02:55:00,5243E-2,5C000090,-0724,1375,6034,023.7,045.2,0.300,770.4,01.15,0.508
2014-02-14 02:56:00,5173E-2,5C000090,-0724,1375,6038,023.7,045.2,0.295,770.4,01.15,0.508
2014-02-14 02:57:00,5160E-2,5C000490,-0724,1375,6055,023.7,045.1,0.167,770.1,01.15,0.508
2014-02-14 02:58:00,5172E-2,5C000490,-0724,1375,5998,023.7,045.2,0.212,770.2,01.15,0.508
2014-02-14 02:59:00,5198E-2,5C000490,-0724,1375,6095,023.7,045.2,0.245,770.3,01.15,0.508
2014-02-14 03:00:00,5109E-2,5C000090,-0724,1375,5946,023.7,045.2,0.279,770.4,01.15,0.508
2014-02-14 03:01:00,5142E-2,5C000490,-0724,1375,6053,023.7,045.2,0.263,770.4,01.15,0.508
2014-02-14 03:02:00,5172E-2,5C000490,-0724,1375,6094,023.7,045.2,0.252,770.4,01.15,0.508
2014-02-14 03:03:00,5151E-2,5C000490,-0724,1375,6036,023.7,045.2,0.261,770.4,01.15,0.508
2014-02-14 03:04:00,5176E-2,5C000490,-0724,1375,5972,023.7,045.2,0.267,770.4,01.15,0.508
2014-02-14 03:05:00,5197E-2,5C000490,-0724,1375,5967,023.7,045.1,0.209,770.4,01.15,0.508
2014-02-14 03:06:00,5282E-2,5C000490,-0724,1375,6591,023.8,045.2,0.000,770.1,01.15,0.508
2014-02-14 03:07:00,5434E-2,5C000490,-0724,1374,6537,023.8,045.2,0.128,770.1,01.15,0.508
2014-02-14 03:08:00,5441E-2,5C000490,-0724,1375,6469,023.8,045.1,0.122,770.1,01.15,0.508
2014-02-14 03:09:00,5469E-2,5C000490,-0724,1375,6466,023.7,045.1,0.163,770.2,01.15,0.508
2014-02-14 03:10:00,5565E-2,5C000490,-0724,1374,6618,023.8,045.1,0.180,770.3,01.15,0.508
2014-02-14 03:11:00,5548E-2,5C000490,-0724,1374,6562,023.8,045.2,0.178,770.3,01.15,0.508
2014-02-14 03:12:00,5552E-2,5C000490,-0724,1374,6544,023.7,045.1,0.194,770.3,01.15,0.508
2014-02-14 03:13:00,5541E-2,5C000490,-0724,1375,6462,023.8,045.1,0.199,770.3,01.15,0.508
2014-02-14 03:14:00,5504E-2,5C000490,-0724,1375,6479,023.8,045.2,0.000,770.0,01.15,0.508
2014-02-14 03:15:00,5599E-2,5C000490,-0724,1375,6487,023.8,045.2,0.000,770.1,01.15,0.508
2014-02-14 03:16:00,5588E-2,5C000490,-0724,1375,6548,023.8,045.2,0.134,770.2,01.15,0.508
2014-02-14 03:17:00,5597E-2,5C000490,-0724,1375,6353,023.8,045.2,0.148,770.3,01.15,0.508
2014-02-14 03:18:00,5532E-2,5C000490,-0724,1375,6386,023.8,045.2,0.163,770.3,01.15,0.508
2014-02-14 03:19:00,5624E-2,5C000490,-0724,1375,6456,023.8,045.2,0.200,770.4,01.15,0.508
2014-02-14 03:20:00,5558E-2,5C000490,-0724,1375,6364,023.8,045.2,0.204,770.4,01.15,0.508
2014-02-14 03:21:00,5616E-2,5C000490,-0724,1375,6451,023.8,045.2,0.186,770.4,01.15,0.508
2014-02-14 03:22:00,5540E-2,5C000490,-0724,1375,6544,023.8,045.2,0.000,770.4,01.15,0.508
2014-02-14 03:23:00,5574E-2,5C000490,-0724,1375,6480,023.8,045.2,0.000,770.1,01.15,0.508
2014-02-14 03:24:00,5565E-2,5C000490,-0724,1375,6356,023.8,045.2,0.000,770.2,01.15,0.508
2014-02-14 03:25:00,5569E-2,5C000490,-0724,1375,6501,023.8,045.2,0.000,770.2,01.15,0.508
2014-02-14 03:26:00,5562E-2,5C000490,-0724,1375,6367,023.8,045.1,0.000,770.3,01.15,0.508
2014-02-14 03:27:00,5593E-2,5C000490,-0724,1375,6418,023.8,045.1,0.121,770.4,01.15,0.508
2014-02-14 03:28:00,5611E-2,5C000490,-0724,1375,6377,023.8,045.2,0.120,770.3,01.15,0.508
2014-02-14 03:29:00,5555E-2,5C000490,-0724,1375,6362,023.8,045.2,0.105,770.4,01.15,0.508
2014-02-14 03:30:00,5644E-2,5C000490,-0724,1375,6274,023.8,045.2,0.135,770.4,01.15,0.508
2014-02-14 03:31:00,5672E-2,5C000490,-0724,1375,6332,023.8,045.2,0.000,770.1,01.15,0.508
2014-02-14 03:32:00,5654E-2,5C000490,-0724,1375,6410,023.8,045.2,0.000,770.2,01.15,0.508
2014-02-14 03:33:00,5648E-2,5C000490,-0724,1375,6229,023.8,045.2,0.000,770.2,01.15,0.508
2014-02-14 03:34:00,5591E-2,5C000490,-0724,1375,6389,023.8,045.2,0.000,770.2,01.15,0.508
2014-02-14 03:35:00,5654E-2,5C000490,-0724,1375,6339,023.8,045.2,0.000,770.3,01.15,0.508
2014-02-14 03:36:00,5679E-2,5C000490,-0724,1375,6376,023.8,045.2,0.000,770.3,01.15,0.508
2014-02-14 03:37:00,5605E-2,5C000490,-0724,1375,6294,023.8,045.1,0.000,770.4,01.15,0.508
2014-02-14 03:38:00,5589E-2,5C000490,-0724,1375,6351,023.8,045.1,0.000,770.4,01.15,0.508
2014-02-14 03:39:00,5602E-2,5C000490,-0724,1375,6396,023.8,045.2,0.000,770.2,01.15,0.508
2014-02-14 03:40:00,5646E-2,5C000490,-0724,1375,6326,023.8,045.2,0.000,770.1,01.15,0.508
2014-02-14 03:41:00,5659E-2,5C000490,-0724,1375,6329,023.8,045.2,0.000,770.1,01.15,0.508
2014-02-14 03:42:00,5578E-2,5C000490,-0724,1375,6315,023.8,045.1,0.000,770.1,01.15,0.508
2014-02-14 03:43:00,5621E-2,5C000490,-0724,1375,6277,023.8,045.1,0.000,770.3,01.15,0.508
2014-02-14 03:44:00,5524E-2,5C000490,-0724,1375,5865,023.8,045.2,0.000,770.2,01.15,0.508
2014-02-14 03:45:00,5332E-2,5C000490,-0724,1375,5813,023.8,045.2,0.000,770.3,01.15,0.508
2014-02-14 03:46:00,5257E-2,5C000490,-0724,1375,5787,023.8,045.2,0.000,770.3,01.15,0.508
2014-02-14 03:47:00,5382E-2,5C000490,-0724,1375,5747,023.8,045.2,0.000,770.4,01.15,0.508
2014-02-14 03:48:00,5467E-2,5C000490,-0724,1345,7415,023.8,045.2,0.000,770.3,01.15,0.508
2014-02-14 03:49:00,5604E-2,5C000490,-0724,1328,7300,023.9,045.2,0.000,770.4,01.15,0.508
2014-02-14 03:50:00,5564E-2,5C000490,-0724,1329,7329,023.8,045.1,0.000,770.1,01.15,0.508
2014-02-14 03:51:00,5551E-2,5C000490,-0724,1333,7179,023.8,045.2,0.000,770.1,01.15,0.508
2014-02-14 03:52:00,5500E-2,5C000490,-0724,1336,7040,023.9,045.1,0.000,770.2,01.15,0.508
2014-02-14 03:53:00,5462E-2,5C000490,-0724,1341,7106,023.9,045.1,0.000,770.3,01.15,0.508
2014-02-14 03:54:00,5514E-2,5C000490,-0724,1344,7037,023.9,045.2,0.000,770.3,01.15,0.508
2014-02-14 03:55:00,5474E-2,5C000490,-0724,1348,7107,023.9,045.2,0.000,770.4,01.15,0.508
2014-02-14 03:56:00,5493E-2,5C000490,-0724,1351,7042,023.9,045.2,0.000,770.4,01.15,0.508
2014-02-14 03:57:00,5467E-2,5C000490,-0724,1354,6980,023.9,045.2,0.000,770.4,01.15,0.508
2014-02-14 03:58:00,5413E-2,5C000490,-0724,1357,6889,023.9,045.2,0.000,770.4,01.15,0.508
2014-02-14 03:59:00,5430E-2,5C000490,-0724,1358,6973,023.9,045.2,0.000,770.5,01.15,0.508
2014-02-14 04:00:00,5425E-2,5C000490,-0724,1359,6971,023.9,045.2,0.000,770.3,01.15,0.508
2014-02-14 04:01:00,5434E-2,5C000490,-0724,1360,7009,023.9,045.2,0.000,770.2,01.15,0.508
2014-02-14 04:02:00,5365E-2,5C000490,-0724,1360,6836,023.9,045.1,0.000,770.3,01.15,0.508
2014-02-14 04:03:00,5353E-2,5C000490,-0724,1360,6950,023.9,045.2,0.000,770.4,01.15,0.508
2014-02-14 04:04:00,5451E-2,5C000490,-0724,1361,6941,023.9,045.2,0.000,770.4,01.15,0.508
2014-02-14 04:05:00,5431E-2,5C000490,-0724,1361,6929,023.9,045.2,0.000,770.5,01.15,0.508
2014-02-14 04:06:00,5340E-2,5C000490,-0724,1361,6995,023.9,045.2,0.000,770.4,01.15,0.508
2014-02-14 04:07:00,5366E-2,5C000490,-0724,1362,6940,023.9,045.1,0.000,770.5,01.15,0.508
2014-02-14 04:08:00,5394E-2,5C000490,-0724,1361,7032,023.9,045.2,0.000,770.5,01.15,0.508
2014-02-14 04:09:00,5344E-2,5C000490,-0724,1361,6976,023.9,045.1,0.000,770.6,01.15,0.508
2014-02-14 04:10:00,5385E-2,5C000490,-0724,1362,6948,023.9,045.1,0.000,770.3,01.15,0.508
2014-02-14 04:11:00,5290E-2,5C000490,-0724,1364,6842,023.9,045.2,0.000,770.4,01.15,0.508
2014-02-14 04:12:00,5315E-2,5C000490,-0724,1365,6974,023.9,045.2,0.000,770.4,01.15,0.508
2014-02-14 04:13:00,5366E-2,5C000490,-0724,1364,6927,023.9,045.2,0.000,770.5,01.15,0.508
2014-02-14 04:14:00,5359E-2,5C000490,-0724,1363,6961,023.9,045.2,0.000,770.5,01.15,0.508
2014-02-14 04:15:00,5344E-2,5C000490,-0724,1364,6742,023.9,045.2,0.000,770.6,01.15,0.508
2014-02-14 04:16:00,5352E-2,5C000490,-0724,1365,6878,023.9,045.2,0.000,770.6,01.15,0.508
2014-02-14 04:17:00,5359E-2,5C000490,-0724,1366,6808,023.9,045.2,0.000,770.6,01.15,0.508
2014-02-14 04:18:00,5372E-2,5C000490,-0724,1367,6868,023.9,045.1,0.000,770.2,01.15,0.508
2014-02-14 04:19:00,5305E-2,5C000490,-0724,1368,6870,023.9,045.2,0.000,770.4,01.15,0.508
2014-02-14 04:20:00,5303E-2,5C000490,-0724,1368,6900,023.9,045.1,0.000,770.4,01.15,0.508
2014-02-14 04:21:00,5351E-2,5C000490,-0724,1368,6920,023.9,045.2,0.000,770.5,01.15,0.508
2014-02-14 04:22:00,5309E-2,5C000490,-0724,1368,6885,024.0,045.2,0.000,770.5,01.15,0.508
2014-02-14 04:23:00,5280E-2,5C000490,-0724,1368,6901,023.9,045.2,0.000,770.5,01.15,0.508